Location: Newark
(43.0000°N, 1.6781°W)
Time: 23:03:19
(UTC+00:00)

deb Explorer IX - Pass Details

Date: 24 April 2021
Orbit: 541 x 1098 km, 38.8° (Epoch: 12 May)

Event Time Altitude Azimuth Distance (km) Brightness Sun altitude
Rises 04:18:36 0° 207° (SSW) 2,699 - -9.6°
Exits shadow 04:19:57 - 199° (SSW) 2,264 ? -9.4°
Reaches altitude 10° 04:21:48 10° 181° (S) 1,790 ? -9.1°
Maximum altitude 04:23:51 14° 150° (SSE) 1,575 ? -8.7°
Drops below altitude 10° 04:25:56 10° 119° (ESE) 1,810 ? -8.4°
Sets 04:29:12 0° 93° (E) 2,754 ? -7.8°
